Home > Time Zones > World Clock > Weather > France > Lyon > Past weeks

Flag for France Weather past 2 weeks in Lyon, France

Now
66 °F

Low clouds.


Feels Like: 66 °F
Forecast: 64 / 81 °F
Wind: 5 mph from North

Location: Lyon / Bron

Current Time: Jul 30, 2014 at 1:12:15 PM

Latest Report: Jul 30, 2014 at 12:30 PM


Visibility: N/A

Pressure: 29.92 "Hg

Humidity: 88%

Dew point: 63 °F

Location of LyonLocation

Historic Weather in Lyon — Graph

°F

Lyon temperature yesterday

Maximum temperature yesterday: 66 °F (at 2:30 PM)
Minimum temperature yesterday: 59 °F (at 7:00 AM)
Average temperature yesterday: 62 °F

Past Weeks' High & Low Weather Summary

 TemperatureHumidityPressure
High93 °F (Jul 17, 6:00 PM)94% (Jul 20, 12:00 PM)30.15 "Hg (Jul 20, 12:00 PM)
Low57 °F (Jul 16, 6:00 AM)23% (Jul 17, 7:00 PM)29.80 "Hg (Jul 19, 7:00 PM)
Average71 °F68%29.97 "Hg
* Reported Jul 15 12:00 Noon — Jul 30 12:00 Noon, Lyon, Weather by CustomWeather, © 2014

Note: Actual official high and low records may vary slightly from our data, if they occured in-between our weather recording intervals... More about our weather records

Advertising

Lyon weather history for previous 24 hours

 ConditionsComfort  
Time TempWeatherWind HumidityBarometerVisibility
12:00 PM
Jul 30
64 °FLow clouds.3 mph94%29.92 "HgN/A
11:30 AM64 °FFog.1 mph94%29.92 "Hg3 mi
11:00 AM63 °FMore clouds than sun.No wind94%29.92 "Hg6 mi
10:30 AM63 °FDrizzle. Mostly cloudy.No wind94%29.89 "HgN/A
10:00 AM63 °FLow clouds.2 mph88%29.89 "HgN/A
9:30 AM61 °FLight rain. Fog.3 mph94%29.89 "Hg2 mi
9:00 AM61 °FHeavy rain. Fog.2 mph94%29.89 "Hg2 mi
8:30 AM61 °FRain. Fog.2 mph94%29.89 "Hg2 mi
8:00 AM61 °FLight rain. Mostly cloudy.1 mph94%29.86 "Hg4 mi
7:30 AM61 °FLight rain. Low clouds.2 mph94%29.86 "Hg5 mi
7:00 AM61 °FLight rain. Low clouds.2 mph94%29.86 "Hg4 mi
6:30 AM61 °FRain. Fog.1 mph94%29.86 "Hg3 mi
6:00 AM61 °FHeavy rain. Fog.3 mph94%29.86 "Hg1 mi
5:30 AM61 °FLight rain. Mostly cloudy.2 mph94%29.86 "HgN/A
5:00 AM61 °FLight rain. Passing clouds.2 mph94%29.86 "Hg5 mi
4:30 AM61 °FLight rain. Overcast.2 mph94%29.89 "Hg5 mi
4:00 AM61 °FLight rain. Overcast.2 mph94%29.89 "HgN/A
3:30 AM61 °FLight rain. Overcast.2 mph94%29.89 "HgN/A
3:00 AM61 °FOvercast.2 mph94%29.89 "HgN/A
2:30 AM61 °FOvercast.No wind94%29.89 "HgN/A
2:00 AM61 °FOvercast.2 mph94%29.89 "HgN/A
1:30 AM61 °FLow clouds.1 mph94%29.92 "Hg6 mi
1:00 AM61 °FOvercast.1 mph94%29.92 "HgN/A
12:30 AM61 °FOvercast.2 mph94%29.92 "HgN/A
12:00 AM61 °FOvercast.2 mph94%29.92 "Hg6 mi
11:30 PM
Jul 29
61 °FLight rain. Fog.5 mph94%29.92 "Hg3 mi
11:00 PM61 °FDrizzle. Mostly cloudy.3 mph94%29.92 "Hg5 mi
10:30 PM61 °FDrizzle. Overcast.3 mph94%29.92 "HgN/A
10:00 PM61 °FCloudy.5 mph88%29.92 "HgN/A
9:30 PM61 °FOvercast.3 mph88%29.92 "HgN/A
9:00 PM63 °FDrizzle. More clouds than sun.2 mph83%29.89 "HgN/A
8:30 PM63 °FOvercast.5 mph83%29.89 "HgN/A
8:00 PM63 °FMore clouds than sun.6 mph83%29.89 "HgN/A
7:30 PM63 °FMostly cloudy.8 mph83%29.89 "HgN/A
7:00 PM64 °FMostly cloudy.6 mph73%29.89 "HgN/A
6:30 PM64 °FMostly cloudy.15 mph73%29.89 "HgN/A
6:00 PM66 °FMostly cloudy.10 mph68%29.86 "HgN/A
5:30 PM66 °FMore clouds than sun.12 mph68%29.86 "HgN/A
5:00 PM66 °FPartly sunny.12 mph68%29.86 "HgN/A
4:30 PM64 °FPartly sunny.13 mph73%29.86 "HgN/A
4:00 PM66 °FOvercast.12 mph68%29.86 "HgN/A
3:30 PM66 °FMostly cloudy.13 mph68%29.86 "HgN/A
3:00 PM66 °FMore clouds than sun.15 mph68%29.86 "HgN/A
2:30 PM66 °FPartly sunny.14 mph68%29.86 "HgN/A
2:00 PM64 °FMostly cloudy.10 mph78%29.89 "HgN/A
1:30 PM64 °FMostly cloudy.9 mph78%29.89 "HgN/A
1:00 PM63 °FMostly cloudy.9 mph83%29.89 "HgN/A
Weather by CustomWeather, © 2014

See weather overviewHow to use our weather pages